TimeCDT,TemperatureF,Dew PointF,Humidity,Sea Level PressureIn,VisibilityMPH,Wind Direction,Wind SpeedMPH,Gust SpeedMPH,PrecipitationIn,Events,Conditions,WindDirDegrees,DateUTC
12:52 AM,61.0,37.0,41,29.83,10.0,South,6.9,-,N/A,,Clear,170,2012-10-20 05:52:00
1:52 AM,63.0,42.1,46,29.81,10.0,South,9.2,-,N/A,,Clear,180,2012-10-20 06:52:00
2:52 AM,62.1,45.0,53,29.81,10.0,South,6.9,-,N/A,,Clear,180,2012-10-20 07:52:00
3:52 AM,62.1,46.9,58,29.80,10.0,South,6.9,-,N/A,,Clear,180,2012-10-20 08:52:00
4:52 AM,61.0,48.0,62,29.78,10.0,SSE,10.4,-,N/A,,Clear,160,2012-10-20 09:52:00
5:52 AM,61.0,48.0,62,29.78,10.0,SSE,12.7,-,N/A,,Clear,160,2012-10-20 10:52:00
6:52 AM,57.9,48.9,72,29.78,10.0,SSE,10.4,-,N/A,,Clear,150,2012-10-20 11:52:00
7:52 AM,64.0,53.1,67,29.78,10.0,South,18.4,24.2,N/A,,Clear,190,2012-10-20 12:52:00
8:52 AM,64.9,55.0,70,29.80,10.0,SSW,11.5,24.2,N/A,,Clear,200,2012-10-20 13:52:00
9:52 AM,69.1,57.9,68,29.80,10.0,SSW,18.4,28.8,N/A,,Clear,210,2012-10-20 14:52:00
10:52 AM,72.0,60.1,66,29.78,10.0,SSW,23.0,27.6,N/A,,Clear,210,2012-10-20 15:52:00
11:52 AM,75.9,60.1,58,29.78,10.0,SSW,15.0,-,N/A,,Clear,210,2012-10-20 16:52:00
12:52 PM,80.1,61.0,52,29.75,10.0,SSW,16.1,23.0,N/A,,Clear,210,2012-10-20 17:52:00
1:52 PM,84.0,60.1,44,29.72,10.0,SSW,18.4,25.3,N/A,,Clear,210,2012-10-20 18:52:00
2:52 PM,87.1,59.0,39,29.68,10.0,SSW,18.4,25.3,N/A,,Clear,210,2012-10-20 19:52:00
4:52 PM,87.1,59.0,39,29.67,10.0,SSW,13.8,23.0,N/A,,Clear,200,2012-10-20 21:52:00
5:52 PM,84.0,59.0,43,29.68,10.0,SSW,5.8,-,N/A,,Clear,200,2012-10-20 22:52:00
6:52 PM,82.9,59.0,44,29.68,10.0,South,6.9,-,N/A,,Clear,190,2012-10-20 23:52:00
7:52 PM,77.0,59.0,54,29.69,10.0,South,8.1,-,N/A,,Clear,180,2012-10-21 00:52:00
8:52 PM,77.0,57.9,52,29.69,10.0,South,10.4,-,N/A,,Clear,180,2012-10-21 01:52:00
9:52 PM,73.9,57.9,57,29.70,10.0,South,9.2,-,N/A,,Clear,170,2012-10-21 02:52:00
10:52 PM,75.9,62.1,62,29.72,10.0,South,11.5,-,N/A,,Clear,180,2012-10-21 03:52:00
11:52 PM,77.0,64.0,64,29.71,10.0,South,13.8,21.9,N/A,,Clear,190,2012-10-21 04:52:00